[[{"header":{"parameterUnit":"m.s-1","parameterCategory":1,"la1":30.2991,"la2":30.254,"lo1":-89.0895,"lo2":-89.0444,"dy":0.0017,"dx":0.0017,"nx":28,"ny":28,"refTime":"2024-04-08T21:00:00:Z","depth":0,"parameterNumber":2,"parameterNumberName":"U-component_of_WINDS"},"data":[0,0,0,0,0,0,0,0,0,0,0,0,0,0,0,0,0,0,0,0,0,0,0,0,0,0,0,0,0,0,0,0,0,0,0,0,0,0,0,0,0,0,0,0,0,0,0,0,0,0,0,0,0,0,0,0,0,0,-5.3598,-5.36,0,-5.3774,-5.3776,-5.3778,-5.3804,-5.3803,-5.3801,-5.3799,-5.3979,-5.3985,-5.3991,0,0,0,0,0,0,0,0,0,0,0,0,0,-5.3283,-5.3288,-5.3598,-5.36,-5.3602,-5.3774,-5.3777,-5.3779,-5.3804,-5.3803,-5.3801,-5.3799,-5.3977,-5.3984,-5.3992,0,0,0,0,0,0,0,0,0,0,0,0,0,-5.3435,-5.329,-5.3597,-5.3636,-5.3641,-5.3774,-5.3777,-5.378,-5.3805,-5.3802,-5.38,-5.3798,-5.3974,-5.3983,-5.3993,-5.4099,0,0,-5.4021,-5.4025,0,0,0,0,0,0,0,0,-5.3427,-5.3447,-5.3628,-5.3633,-5.3639,-5.3765,-5.3731,-5.3887,-5.3805,-5.3743,-5.3799,-5.3797,-5.3909,-5.3924,-5.3962,-5.4107,-5.4115,-5.4022,-5.4028,-5.4032,-5.4035,0,0,0,0,0,0,0,-5.3416,-5.3439,-5.3668,-5.363,-5.3638,-5.3644,-5.3663,-5.3761,-5.3837,-5.3748,-5.375,-5.3771,-5.3912,-5.3953,-5.3967,-5.4118,-5.4022,-5.403,-5.4036,-5.404,-5.4359,-5.4362,0,0,0,0,0,0,-5.3399,-5.343,-5.3662,-5.3673,-5.3525,-5.3652,-5.3673,-5.3727,-5.3836,-5.3851,-5.3773,-5.3771,-5.3938,-5.3956,-5.3973,-5.4104,-5.4032,-5.4041,-5.4046,-5.4356,-5.436,-5.4363,0,0,0,0,0,0,-5.3392,-5.3419,-5.3655,-5.3552,-5.3583,-5.366,-5.372,-5.3732,-5.3773,-5.3855,-5.3869,-5.3801,-5.3937,-5.396,-5.4068,-5.411,-5.4045,-5.4054,-5.4353,-5.4357,-5.4361,-5.4367,0,0,0,0,0,0,-5.3383,-5.3416,-5.3457,-5.3553,-5.3588,-5.3746,-5.3723,-5.3737,-5.3789,-5.3789,-5.3885,-5.3898,-5.3937,-5.4053,-5.4077,-5.4122,-5.4061,-5.4349,-5.4355,-5.436,-5.4363,-5.437,-5.4377,0,0,0,0,0,-5.3371,-5.3452,-5.3459,-5.3487,-5.3641,-5.3749,-5.3769,-5.3812,-5.3793,-5.3834,-5.3888,-5.3895,-5.4103,-5.4064,-5.4091,-5.414,-5.4347,-5.4353,-5.4359,-5.436,-5.4369,-5.4377,0,0,0,0,0,0,-5.3358,-5.3465,-5.3474,-5.3588,-5.3659,-5.3753,-5.3807,-5.3821,-5.3898,-5.3894,-5.3945,-5.3966,-5.4071,-5.4117,-5.4072,-5.4249,-5.4223,-5.4235,-5.4214,-5.4224,-5.4231,-5.4216,-5.4069,0,0,0,0,0,-5.3369,-5.3447,-5.3536,-5.3628,-5.3664,-5.3729,-5.3778,-5.3805,-5.388,-5.391,-5.3971,-5.4043,-5.4125,-5.4177,-5.4257,-5.4371,-5.4392,-5.4418,-5.4425,-5.443,-5.4439,-5.4502,-5.4514,-5.4384,-5.4384,-5.4383,0,0,-5.339,-5.3459,-5.3505,-5.3627,-5.3685,-5.3765,-5.3754,-5.3839,-5.3898,-5.3923,-5.4028,-5.4076,-5.416,-5.4271,-5.4323,-5.4312,-5.448,-5.4439,-5.4442,-5.4448,-5.451,-5.4522,-5.4533,-5.4388,-5.4387,-5.4386,0,0,-5.3471,-5.3531,-5.3614,-5.3673,-5.3761,-5.3805,-5.3825,-5.3917,-5.395,-5.4056,-5.4076,-5.4148,-5.4288,-5.4347,-5.4395,-5.4501,-5.451,-5.4525,-5.4561,-5.4622,-5.4632,-5.4641,-5.4677,-5.4689,-5.4535,-5.4535,-5.4535,0,-5.3486,-5.3607,-5.3654,-5.3739,-5.3791,-5.3819,-5.3903,-5.3958,-5.4068,-5.4104,-5.4091,-5.4267,-5.4326,-5.445,-5.4476,-5.4515,-5.4539,-5.4513,-5.4627,-5.4637,-5.4646,-5.4681,-5.4694,-5.4536,-5.4536,-5.4535,-5.4535,0,-5.3622,-5.3706,-5.3762,-5.3868,-5.3928,-5.4011,-5.4071,-5.4126,-5.4149,-5.4194,-5.4302,-5.4374,-5.4469,-5.4501,-5.4524,-5.463,-5.462,-5.4617,-5.4591,-5.4659,-5.4692,-5.4706,-5.4537,-5.4537,-5.4537,-5.4536,0,0,-5.3695,-5.3827,-5.3847,-5.3895,-5.3996,-5.4062,-5.4148,-5.4241,-5.4286,-5.4362,-5.4434,-5.4553,-5.4551,-5.4606,-5.4636,-5.469,-5.4767,-5.468,-5.4683,-5.4692,-5.4886,-5.4885,-5.49,-5.4776,-5.4778,-5.4781,-5.4878,0,-5.3785,-5.3938,-5.3983,-5.4111,-5.4189,-5.4218,-5.4292,-5.4362,-5.4407,-5.4479,-5.453,-5.4612,-5.4604,-5.4637,-5.4692,-5.4746,-5.4806,-5.474,-5.4841,-5.4844,-5.4816,-5.4918,-5.4917,-5.5005,-5.4891,-5.4894,-5.4895,0,-5.391,-5.3988,-5.4124,-5.4215,-5.425,-5.4315,-5.4404,-5.4474,-5.4554,-5.4584,-5.4646,-5.4672,-5.4762,-5.4735,-5.486,-5.4813,-5.4859,-5.4892,-5.4896,-5.4905,-5.4871,-5.4926,-5.5035,-5.5047,-5.4917,-5.4915,-5.4913,0,-5.3947,-5.4087,-5.4186,-5.4227,-5.4336,-5.4382,-5.443,-5.4508,-5.4561,-5.464,-5.4675,-5.4763,-5.481,-5.4878,-5.4927,-5.4903,-5.5047,-5.5024,-5.5072,-5.5071,-5.5098,-5.5095,-5.5213,-5.5132,-5.5132,-5.5132,-5.5132,0,-5.404,-5.4122,-5.4204,-5.4264,-5.4356,-5.4409,-5.4499,-5.4548,-5.4618,-5.4688,-5.472,-5.4785,-5.4848,-5.4922,-5.4962,-5.5058,-5.508,-5.5105,-5.5114,-5.5101,-5.5097,-5.5128,-5.5122,-5.5136,-5.5135,-5.5134,-5.5133,0,-5.4096,-5.4154,-5.4264,-5.4359,-5.4385,-5.4449,-5.4531,-5.4591,-5.4638,-5.4727,-5.4751,-5.4825,-5.4914,-5.4971,-5.5085,-5.5111,-5.5216,-5.5225,-5.5188,-5.5192,-5.5236,-5.523,-5.5375,-5.5396,-5.5304,-5.5305,-5.5306,0,-5.415,-5.4213,-5.4316,-5.4366,-5.4414,-5.4494,-5.4549,-5.4604,-5.466,-5.4757,-5.4805,-5.4896,-5.4971,-5.5112,-5.5176,-5.5263,-5.5272,-5.5318,-5.5285,-5.527,-5.527,-5.5264,-5.527,-5.5321,-5.5322,-5.5323,-5.5323,0,-5.424,-5.4266,-5.4344,-5.4432,-5.4497,-5.4569,-5.4641,-5.468,-5.4748,-5.4809,-5.49,-5.4959,-5.5076,-5.5165,-5.5258,-5.5308,-5.5326,-5.5333,-5.5349,-5.5334,-5.5309,-5.5321,-5.5199,-5.5329,-5.5328,-5.5328,-5.5327,-5.5327,-5.4295,-5.4352,-5.4433,-5.4519,-5.458,-5.4647,-5.4708,-5.4763,-5.4841,-5.4939,-5.4968,-5.5063,-5.5143,-5.527,-5.5321,-5.5397,-5.5391,-5.5414,-5.5419,-5.5423,-5.5422,-5.53,-5.5414,-5.5414,-5.5414,-5.5414,-5.5414,0,-5.4384,-5.4438,-5.4517,-5.4617,-5.4685,-5.4699,-5.478,-5.4835,-5.4918,-5.4992,-5.5066,-5.5171,-5.5259,-5.533,-5.5421,-5.5467,-5.5478,-5.5489,-5.5484,-5.5495,-5.5423,-5.54,-5.5478,-5.5478,-5.5478,-5.5478,-5.5478,-5.5478,-5.4438,-5.4535,-5.4572,-5.4699,-5.4754,-5.4847,-5.4892,-5.4954,-5.5013,-5.5129,-5.5202,-5.5249,-5.5321,-5.5418,-5.5499,-5.5518,-5.5548,-5.5557,-5.5577,-5.5508,-5.55,-5.5493,-5.5471,-5.5564,-5.5564,-5.5642,-5.5643,-5.5644]},{"header":{"parameterUnit":"m.s-1","parameterCategory":1,"la1":30.2991,"la2":30.254,"lo1":-89.0895,"lo2":-89.0444,"dy":0.0017,"dx":0.0017,"nx":28,"ny":28,"refTime":"2024-04-08T21:00:00:Z","depth":0,"parameterNumber":3,"parameterNumberName":"V-component_of_WINDS"},"data":[0,0,0,0,0,0,0,0,0,0,0,0,0,0,0,0,0,0,0,0,0,0,0,0,0,0,0,0,0,0,0,0,0,0,0,0,0,0,0,0,0,0,0,0,0,0,0,0,0,0,0,0,0,0,0,0,0,0,4.445,4.4451,0,4.4589,4.459,4.4592,4.4618,4.4617,4.4616,4.4615,4.4755,4.4759,4.4764,0,0,0,0,0,0,0,0,0,0,0,0,0,4.4207,4.4211,4.4449,4.4451,4.4453,4.4588,4.459,4.4592,4.4619,4.4617,4.4616,4.4615,4.4753,4.4759,4.4764,0,0,0,0,0,0,0,0,0,0,0,0,0,4.4325,4.4212,4.4449,4.4483,4.4487,4.4588,4.459,4.4593,4.4619,4.4617,4.4616,4.4614,4.4751,4.4758,4.4765,4.4842,0,0,4.4787,4.479,0,0,0,0,0,0,0,0,4.4319,4.4334,4.4476,4.4481,4.4486,4.4585,4.4556,4.4676,4.4619,4.4569,4.4615,4.4613,4.4699,4.471,4.474,4.4848,4.4854,4.4787,4.4792,4.4795,4.4797,0,0,0,0,0,0,0,4.431,4.4328,4.4504,4.4478,4.4484,4.449,4.4506,4.4579,4.4641,4.4573,4.4575,4.4591,4.4701,4.4733,4.4743,4.4856,4.4787,4.4794,4.4798,4.4801,4.5037,4.5039,0,0,0,0,0,0,4.4296,4.4321,4.45,4.4509,4.4396,4.4496,4.4513,4.4554,4.4641,4.4652,4.4593,4.4592,4.4722,4.4735,4.4748,4.4846,4.4795,4.4801,4.4805,4.5035,4.5038,4.504,0,0,0,0,0,0,4.4291,4.4312,4.4494,4.4416,4.444,4.4502,4.4548,4.4558,4.459,4.4656,4.4667,4.4614,4.4721,4.4738,4.4819,4.4851,4.4805,4.4811,4.5033,4.5036,4.5039,4.504,0,0,0,0,0,0,4.4284,4.431,4.434,4.4416,4.4444,4.4563,4.455,4.4562,4.4602,4.4603,4.4678,4.4689,4.4721,4.4808,4.4826,4.486,4.4817,4.503,4.5034,4.5038,4.5038,4.5043,4.5047,0,0,0,0,0,4.4275,4.4333,4.4341,4.4362,4.4482,4.4565,4.458,4.4617,4.4604,4.4635,4.4678,4.4687,4.4845,4.4816,4.4837,4.4873,4.5028,4.5033,4.5038,4.5035,4.5042,4.5047,0,0,0,0,0,0,4.4257,4.4344,4.4353,4.4438,4.4494,4.4569,4.4609,4.4622,4.4682,4.468,4.4722,4.4739,4.4818,4.4853,4.482,4.4953,4.4936,4.4945,4.4927,4.4934,4.4939,4.4929,4.4822,0,0,0,0,0,4.4263,4.4324,4.4396,4.4463,4.4491,4.4545,4.4582,4.4606,4.4665,4.4689,4.4737,4.4794,4.4857,4.4897,4.4958,4.5043,4.5061,4.5078,4.5083,4.5087,4.5094,4.5144,4.5153,4.5055,4.5055,4.5055,0,0,4.4276,4.4331,4.4366,4.4461,4.4507,4.4569,4.4565,4.4629,4.4676,4.4698,4.4779,4.4816,4.4882,4.4966,4.5005,4.4998,4.5125,4.5092,4.5095,4.5101,4.515,4.5159,4.5167,4.5058,4.5058,4.5057,0,0,4.4331,4.4378,4.4441,4.4488,4.4559,4.4595,4.461,4.4684,4.471,4.4792,4.4811,4.4866,4.4973,4.502,4.5058,4.5134,4.5145,4.5153,4.5179,4.5227,4.5235,4.5242,4.5271,4.5281,4.516,4.516,4.516,0,4.4338,4.4432,4.4471,4.4537,4.4579,4.4604,4.4668,4.4711,4.4798,4.4827,4.4818,4.4954,4.5,4.5097,4.5116,4.5145,4.5164,4.5145,4.5231,4.5238,4.5245,4.5274,4.5284,4.516,4.516,4.516,4.516,0,4.4438,4.4503,4.4546,4.4631,4.4678,4.4742,4.4791,4.4834,4.4854,4.4891,4.4975,4.5031,4.5106,4.513,4.5149,4.523,4.5224,4.5222,4.5206,4.5255,4.5282,4.5293,4.5161,4.5161,4.5161,4.5161,0,0,4.4485,4.4593,4.4608,4.4648,4.4729,4.478,4.4846,4.4921,4.4957,4.5017,4.5074,4.5165,4.5165,4.5208,4.5233,4.5275,4.5335,4.5269,4.5271,4.5281,4.543,4.5432,4.5444,4.5343,4.5345,4.5347,4.5426,0,4.4551,4.4671,4.4709,4.4809,4.4872,4.4897,4.4955,4.5011,4.5048,4.5106,4.5146,4.5211,4.5205,4.5232,4.5275,4.5319,4.5366,4.5313,4.5397,4.54,4.5381,4.5458,4.546,4.5531,4.5436,4.5438,4.5439,0,4.4644,4.4708,4.4814,4.489,4.4918,4.4969,4.5042,4.5097,4.5161,4.5185,4.5235,4.5257,4.5328,4.5308,4.5407,4.537,4.5407,4.5434,4.5438,4.5448,4.5423,4.5472,4.5555,4.5566,4.5456,4.5455,4.5454,0,4.467,4.4782,4.4861,4.4894,4.4984,4.502,4.5059,4.5123,4.5166,4.5229,4.5258,4.5327,4.5366,4.542,4.5461,4.5442,4.5557,4.5539,4.558,4.5579,4.5604,4.5602,4.5695,4.5625,4.5625,4.5624,4.5624,0,4.4741,4.4806,4.4874,4.4923,4.4997,4.5041,4.5113,4.5153,4.521,4.5267,4.5292,4.5346,4.5396,4.5456,4.5488,4.5567,4.5584,4.5606,4.5614,4.5604,4.5602,4.563,4.5626,4.5627,4.5627,4.5626,4.5626,0,4.4783,4.4831,4.492,4.4998,4.502,4.5071,4.5139,4.5187,4.5226,4.5298,4.5318,4.5378,4.5451,4.5497,4.5588,4.561,4.5697,4.5702,4.5676,4.568,4.5719,4.5715,4.5835,4.5853,4.5768,4.5769,4.577,0,4.4826,4.4877,4.4962,4.5003,4.5043,4.5108,4.5153,4.5198,4.5244,4.5323,4.5363,4.5437,4.5499,4.5614,4.5666,4.5736,4.5745,4.5782,4.5756,4.5746,4.5748,4.5745,4.5752,4.5787,4.5787,4.5788,4.5788,0,4.4897,4.4919,4.4984,4.5057,4.5111,4.517,4.523,4.5262,4.5317,4.5367,4.5443,4.5491,4.5586,4.566,4.5736,4.5776,4.5792,4.5796,4.581,4.5801,4.5785,4.5797,4.5689,4.5793,4.5793,4.5792,4.5792,4.5792,4.4943,4.499,4.5059,4.513,4.518,4.5236,4.5286,4.5332,4.5396,4.5478,4.55,4.5579,4.5645,4.5749,4.5791,4.5854,4.5849,4.5868,4.5873,4.5878,4.588,4.5774,4.5867,4.5867,4.5867,4.5867,4.5867,0,4.5018,4.5063,4.5129,4.5212,4.5269,4.528,4.5347,4.5394,4.5464,4.5524,4.5585,4.5673,4.5746,4.5804,4.5879,4.5918,4.5928,4.5937,4.5935,4.5945,4.5878,4.586,4.5928,4.5928,4.5928,4.5928,4.5928,4.5928,4.5063,4.5146,4.5176,4.5284,4.5329,4.5408,4.5445,4.5497,4.5546,4.5643,4.5705,4.5743,4.5803,4.5883,4.5951,4.5966,4.5993,4.6001,4.6018,4.5955,4.5949,4.5942,4.5926,4.6006,4.6006,4.6079,4.608,4.608]}]]